Weather History for KUIL - June, 2013

Change the Weather History Date:

Sunday, June 30, 2013

  Actual Average Record
Temperature  
Mean Temperature 69 °F 57 °F  
Max Temperature 82 °F 65 °F 86 °F (1995)
Min Temperature 55 °F 49 °F 39 °F (1975)
Degree Days  
Heating Degree Days 0 8  
Month to date heating degree days 180 294  
Since 1 June heating degree days 180 294  
Since 1 July heating degree days 5249 5762  
Cooling Degree Days 4 0  
Month to date cooling degree days 7 3  
Year to date cooling degree days 10 4  
Since 1 June cooling degree days 7 3  
Growing Degree Days 18 (Base 50)    
Moisture  
Dew Point 57 °F    
Average Humidity 69    
Maximum Humidity 90    
Minimum Humidity 48    
Precipitation  
Precipitation 0.00 in 0.09 in 1.22 in (1989)
Month to date precipitation 2.90 3.50  
Year to date precipitation 58.80 52.25  
Sea Level Pressure  
Sea Level Pressure 29.97 in    
Wind  
Wind Speed 4 mph (WNW)    
Max Wind Speed 12 mph    
Max Gust Speed 15 mph    
Visibility 8 miles    
Events      
T = Trace of Precipitation, MM = Missing Value Source: NWS Daily Summary

Daily Weather History Graph

Daily Weather History Graph

Search for Another Location

Airport or City:

Trip Planner

Search our weather history database for the weather conditions in past years. The results will help you decide how hot, cold, wet, or windy it might be!

Date:

Astronomy

Jun. 30, 2013 Rise Set
Actual Time 5:22 AM PDT 9:21 PM PDT
Civil Twilight 4:41 AM PDT 10:01 PM PDT
Nautical Twilight 3:45 AM PDT 10:58 PM PDT
Astronomical Twilight 2:12 AM PDT 12:29 AM PDT
Moon 12:46 AM PDT (6/30) 2:22 PM PDT (6/30)
Length of Visible Light 17h 20m
Length of Day
15h 58m
Last Quarter, 44% of the Moon is Illuminated
Jun 30
Last Quarter
Jul 8
New
Jul 15
First Quarter
Jul 22
Full
Jul 29
Last Quarter

Hourly Weather History & Observations

Time (PDT) Temp. Heat Index Dew Point Humidity Pressure Visibility Wind Dir Wind Speed Gust Speed Precip Events Conditions
12:53 AM 57.9 °F - 53.1 °F 84% 30.02 in 8.0 mi Calm Calm - N/A   Clear
1:53 AM 57.9 °F - 54.0 °F 87% 30.01 in 8.0 mi Calm Calm - N/A   Clear
2:53 AM 57.0 °F - 53.1 °F 87% 30.01 in 6.0 mi Calm Calm - N/A   Clear
3:53 AM 55.9 °F - 52.0 °F 87% 30.00 in 8.0 mi Calm Calm - N/A   Clear
4:53 AM 55.0 °F - 51.1 °F 86% 30.00 in 8.0 mi Calm Calm - N/A   Clear
5:53 AM 57.0 °F - 53.1 °F 87% 30.00 in 7.0 mi Calm Calm - N/A   Clear
6:53 AM 62.1 °F - 55.9 °F 80% 30.00 in 7.0 mi Calm Calm - N/A   Clear
7:53 AM 66.0 °F - 57.9 °F 75% 30.00 in 8.0 mi Calm Calm - N/A   Clear
8:53 AM 72.0 °F - 61.0 °F 68% 29.99 in 8.0 mi Calm Calm - N/A   Clear
9:53 AM 75.9 °F - 63.0 °F 64% 29.99 in 9.0 mi West 4.6 mph - N/A   Clear
10:53 AM 78.1 °F - 61.0 °F 56% 29.97 in 9.0 mi WNW 5.8 mph - N/A   Clear
11:53 AM 80.1 °F 80.9 °F 60.1 °F 50% 29.96 in 9.0 mi NW 5.8 mph - N/A   Clear
12:53 PM 81.0 °F 81.7 °F 61.0 °F 50% 29.95 in 9.0 mi WSW 10.4 mph - N/A   Clear
1:53 PM 82.0 °F 83.0 °F 62.1 °F 51% 29.95 in 9.0 mi West 9.2 mph - N/A   Clear
2:53 PM 81.0 °F 81.9 °F 62.1 °F 52% 29.95 in 9.0 mi West 8.1 mph - N/A   Clear
3:53 PM 79.0 °F - 60.1 °F 52% 29.94 in 9.0 mi West 6.9 mph - N/A   Clear
4:53 PM 79.0 °F - 59.0 °F 50% 29.94 in 9.0 mi Variable 6.9 mph - N/A   Clear
5:53 PM 78.1 °F - 57.9 °F 50% 29.94 in 9.0 mi Variable 4.6 mph - N/A   Clear
6:53 PM 75.0 °F - 55.0 °F 50% 29.93 in 9.0 mi NW 6.9 mph - N/A   Clear
7:53 PM 73.0 °F - 57.0 °F 57% 29.93 in 9.0 mi NNW 4.6 mph - N/A   Clear
8:53 PM 69.1 °F - 57.9 °F 68% 29.93 in 9.0 mi NW 5.8 mph - N/A   Clear
9:53 PM 66.0 °F - 57.9 °F 75% 29.93 in 10.0 mi Calm Calm - N/A   Clear
10:53 PM 64.0 °F - 57.9 °F 80% 29.94 in 9.0 mi Calm Calm - N/A   Clear
11:53 PM 61.0 °F - 57.0 °F 87% 29.96 in 8.0 mi WNW 3.5 mph - N/A   Clear